Asheville, NC

1:50 PM EDT on May 27, 2017 (GMT -0400)
Asheville Regional

Weather History for KAVL - December, 2013

Change the Weather History Date:

Saturday, December 7, 2013

  Actual Average Record
Temperature  
Mean Temperature 46 °F 41 °F  
Max Temperature 51 °F 51 °F 75 °F (1998)
Min Temperature 40 °F 31 °F 5 °F (1977)
Degree Days  
Heating Degree Days 19 24  
Month to date heating degree days 96 162  
Since 1 July heating degree days 979 1029  
Cooling Degree Days 0 0  
Month to date cooling degree days 0 0  
Year to date cooling degree days 860 863  
Moisture  
Dew Point 39 °F    
Average Humidity 83    
Maximum Humidity 100    
Minimum Humidity 66    
Precipitation  
Precipitation T in 0.13 in 2.25 in (1950)
Month to date precipitation 0.96 0.92  
Year to date precipitation 68.51 42.90  
Snow  
Snow 0.00 in 0.00 in 1.00 in (1959)
Month to date snowfall 0.0 0.1  
Since 1 July snowfall 0.2 0.2  
Snow Depth 0.00 in    
Sea Level Pressure  
Sea Level Pressure 30.24 in    
Wind  
Wind Speed 12 mph (NNW)    
Max Wind Speed 28 mph    
Max Gust Speed 33 mph    
Visibility 9 miles    
Events Rain    
T = Trace of Precipitation, MM = Missing Value Source: NWS Daily Summary

Daily Weather History Graph

Daily Weather History Graph

Search for Another Location

Airport or City:

Trip Planner

Search our weather history database for the weather conditions in past years. The results will help you decide how hot, cold, wet, or windy it might be!

Date:

Astronomy

Dec. 07, 2013 Rise Set
Actual Time 7:26 AM EST 5:17 PM EST
Civil Twilight 6:58 AM EST 5:45 PM EST
Nautical Twilight 6:26 AM EST 6:17 PM EST
Astronomical Twilight 5:55 AM EST 6:47 PM EST
Moon 11:17 AM EST (12/7) 10:49 PM EST (12/7)
Length of Visible Light 10h 47m
Length of Day
9h 51m
Waxing Crescent, 29% of the Moon is Illuminated
Dec 7
Waxing Crescent
Dec 9
First Quarter
Dec 17
Full
Dec 25
Last Quarter
Jan 1
New

Hourly Weather History & Observations

Time (EST) Temp. Windchill Dew Point Humidity Pressure Visibility Wind Dir Wind Speed Gust Speed Precip Events Conditions
12:54 AM 51.1 °F - 48.0 °F 89% 30.02 in 10.0 mi NNW 15.0 mph - 0.00 in   Scattered Clouds
1:54 AM 50.0 °F - 48.0 °F 93% 30.03 in 10.0 mi NNW 9.2 mph - N/A   Overcast
2:37 AM 50.0 °F - 48.2 °F 94% 30.09 in 10.0 mi North 13.8 mph 21.9 mph 0.00 in   Overcast
2:54 AM 48.0 °F - 45.0 °F 89% 30.07 in 10.0 mi NNW 19.6 mph 26.5 mph 0.00 in Rain Light Rain
3:21 AM 44.6 °F 35.9 °F 42.8 °F 93% 30.12 in 10.0 mi NNW 23.0 mph 29.9 mph 0.00 in   Overcast
3:34 AM 44.6 °F 36.1 °F 39.2 °F 81% 30.13 in 10.0 mi NNW 21.9 mph 29.9 mph 0.00 in   Scattered Clouds
3:54 AM 43.0 °F 33.8 °F 39.9 °F 89% 30.10 in 10.0 mi NNW 23.0 mph 28.8 mph 0.00 in   Scattered Clouds
4:16 AM 42.8 °F 35.8 °F 39.2 °F 87% 30.14 in 10.0 mi North 13.8 mph 26.5 mph N/A   Mostly Cloudy
4:54 AM 42.1 °F 33.6 °F 37.9 °F 85% 30.12 in 10.0 mi NNW 18.4 mph 28.8 mph N/A   Mostly Cloudy
5:19 AM 41.0 °F 32.5 °F 37.4 °F 87% 30.16 in 10.0 mi North 17.3 mph 24.2 mph N/A   Scattered Clouds
5:54 AM 41.0 °F 32.8 °F 37.0 °F 86% 30.15 in 10.0 mi North 16.1 mph 24.2 mph N/A   Clear
6:54 AM 39.9 °F 31.4 °F 36.0 °F 86% 30.20 in 10.0 mi North 16.1 mph - N/A   Partly Cloudy
7:54 AM 39.9 °F 32.1 °F 36.0 °F 86% 30.23 in 10.0 mi North 13.8 mph 20.7 mph N/A   Scattered Clouds
8:54 AM 41.0 °F 32.5 °F 36.0 °F 82% 30.24 in 10.0 mi North 17.3 mph 25.3 mph N/A   Clear
9:28 AM 42.8 °F 36.2 °F 35.6 °F 76% 30.28 in 10.0 mi North 12.7 mph 19.6 mph N/A   Mostly Cloudy
9:54 AM 44.1 °F 37.4 °F 36.0 °F 73% 30.28 in 10.0 mi North 13.8 mph 21.9 mph N/A   Scattered Clouds
10:54 AM 45.0 °F 38.5 °F 37.0 °F 74% 30.30 in 10.0 mi North 13.8 mph 19.6 mph N/A   Mostly Cloudy
11:54 AM 46.9 °F - 37.0 °F 68% 30.28 in 10.0 mi North 12.7 mph 23.0 mph N/A   Mostly Cloudy
12:54 PM 46.0 °F 40.2 °F 37.0 °F 71% 30.27 in 10.0 mi North 12.7 mph 20.7 mph N/A   Overcast
12:57 PM 46.4 °F 40.7 °F 37.4 °F 71% 30.28 in 10.0 mi North 12.7 mph 20.7 mph N/A   Mostly Cloudy
1:54 PM 48.0 °F - 37.9 °F 68% 30.26 in 10.0 mi North 9.2 mph - N/A   Mostly Cloudy
2:54 PM 46.9 °F - 37.9 °F 71% 30.25 in 10.0 mi North 11.5 mph - N/A   Overcast
3:54 PM 46.9 °F - 37.9 °F 71% 30.26 in 10.0 mi NNW 11.5 mph - N/A   Overcast
4:54 PM 45.0 °F 39.7 °F 37.0 °F 74% 30.29 in 10.0 mi North 10.4 mph - N/A   Overcast
5:36 PM 44.6 °F 38.8 °F 37.4 °F 76% 30.29 in 10.0 mi NNW 11.5 mph - N/A   Overcast
5:54 PM 43.0 °F 37.2 °F 37.0 °F 80% 30.31 in 10.0 mi NNW 10.4 mph - N/A   Overcast
6:54 PM 43.0 °F 37.7 °F 37.0 °F 80% 30.33 in 10.0 mi NNW 9.2 mph - N/A   Overcast
7:15 PM 42.8 °F 37.0 °F 37.4 °F 81% 30.33 in 10.0 mi NNW 10.4 mph - N/A   Overcast
7:54 PM 42.1 °F 38.4 °F 37.0 °F 82% 30.35 in 10.0 mi NNW 5.8 mph - N/A   Overcast
8:54 PM 39.9 °F 36.7 °F 39.0 °F 97% 30.36 in 4.0 mi North 4.6 mph - N/A   Overcast
9:22 PM 41.0 °F - 39.2 °F 93% 30.35 in 2.5 mi Calm Calm - N/A   Overcast
9:32 PM 39.2 °F - 39.2 °F 100% 30.36 in 3.0 mi Calm Calm - N/A   Overcast
9:54 PM 41.0 °F - 39.9 °F 96% 30.36 in 3.0 mi Calm Calm - N/A   Overcast
10:05 PM 41.0 °F - 39.2 °F 93% 30.35 in 4.0 mi Calm Calm - N/A   Overcast
10:32 PM 42.8 °F - 41.0 °F 93% 30.36 in 6.0 mi Calm Calm - N/A   Overcast
10:40 PM 42.8 °F 41.1 °F 41.0 °F 93% 30.35 in 9.0 mi South 3.5 mph - N/A   Overcast
10:54 PM 43.0 °F 39.5 °F 41.0 °F 93% 30.35 in 10.0 mi South 5.8 mph - N/A   Overcast
11:54 PM 44.1 °F 41.5 °F 39.9 °F 85% 30.35 in 10.0 mi SSE 4.6 mph - N/A   Overcast